CAPE
4039 4132 3798 3576 2861 1746 1045 2028 2920 2740 2705 2353 2004 886 541 249 71 88 404 484 644 606 418 462 538 347 291 321 238 312 484 669 530 869 1539 1696 1560 1409 1170 1156 1049 675 596 732 567 505 628 942 1008 940 1041 1045 950 766 966 1035 1086 1145 1188 2008 3287 3981 3450 3090 2557 2280 2392 2422 2083 2018 1881 2019 1832 2371 2803 3544 3606 3084 1864 2084 2570 2575 3459 2878 3053
4889 4856 4454 3583 2864 2899 2972 2754 1798 2592 2498 1612 1264 854 452 301 339 821 303 575 670 362 586 572 484 604 464 384 417 435 1073 1672 1199 995 1089 1134 1241 931 678 785 930 1090 1233 1217 1187 1041 804 909 966 697 848 1012 1016 856 624 860 1030 1225 1486 2233 3298 3969 3717 3020 2713 2370 2098 2062 2362 2484 2257 2241 2030 1942 1900 2493 3339 2492 2287 2143 1869 2043 2970 3110 2674
5356 5262 4680 3971 3578 3312 3262 3115 2270 2729 2250 2081 1484 984 660 700 961 837 797 796 798 804 614 537 638 844 893 750 811 540 590 802 950 975 1022 1071 1156 1138 782 609 644 736 694 835 1063 1129 954 878 1036 1225 1140 908 838 849 947 1140 1206 1298 1470 1661 1898 2742 2939 2610 2108 1982 1952 1846 2028 2024 2164 2324 2067 1872 1638 3297 2407 1984 1967 2172 2959 3205 2925 2310 2575
5427 5054 4502 3569 3302 3390 3318 3065 2265 2149 2219 2009 1797 1372 982 790 1081 1749 2090 1674 891 964 963 810 898 1676 1286 783 698 858 938 950 772 774 1087 1424 1454 1448 1369 1142 928 862 1008 1139 1016 860 803 878 973 1036 1056 952 976 962 882 1005 1224 1363 1356 1506 1983 2600 2824 2724 2268 1822 1952 1916 1940 2059 2076 2087 2418 2274 4348 3203 2102 2058 1924 2404 2823 3211 2852 2385 2238
5253 4884 4354 3909 3484 3348 3032 2547 2142 1833 1046 1396 1407 1467 1621 1630 1820 1979 2063 1780 1645 1443 1388 1258 1068 1018 939 791 722 922 1206 1482 1687 1805 1813 1668 1549 1475 1438 1500 1419 1413 1477 1524 1627 1464 1371 1302 1237 1218 1248 1164 1120 1036 950 1042 1134 1168 1298 1456 1611 1693 2376 2682 2475 2178 1910 1764 1824 2002 2163 2363 2606 2930 4363 3084 2334 1872 2165 2804 2743 2756 3142 2596 2645
4931 4636 4365 3914 3640 2840 2667 2420 2056 1945 1899 1829 1726 1574 2244 2790 2672 2422 2442 2591 2555 2308 2026 1736 1142 918 969 1196 974 950 1080 1162 1150 1145 1136 1075 1026 1084 1264 1562 1718 1690 1615 1602 1596 1591 1502 1454 1464 1522 1446 1356 1218 1160 1306 1310 1268 1272 1352 1611 1998 2269 2479 1415 1179 1373 1502 1534 1565 1869 2443 2617 2714 2651 3089 3238 2661 2042 1762 2149 2899 3028 2723 2468 2319
4465 4327 4171 3730 3380 2759 2200 2114 2292 2194 2369 2376 2328 2482 2684 2673 2635 2600 2586 2591 2528 2348 2143 1878 1590 1215 1171 1382 1520 1489 1439 1536 1595 1529 1487 1499 1492 1525 1564 1621 1692 1746 1722 1640 1585 1564 1533 1451 1374 1396 1464 1430 1362 1291 1247 1275 1279 1302 1476 1565 1604 2294 2190 1656 1423 1189 904 1047 1346 1468 1499 2098 2053 1886 2570 2636 2682 1997 2403 2328 2282 2364 1971 1860 2033
4268 4012 3808 3630 3220 2487 2194 2022 2198 2498 2608 2819 2916 2828 2725 2648 2724 2917 2996 2858 2632 2416 2250 2044 1866 1706 1658 1579 1544 1647 1713 1708 1768 1762 1741 1751 1809 1827 1860 1846 1764 1690 1727 1774 1712 1634 1448 1432 1484 1496 1422 1354 1314 1350 1409 1326 1287 1239 1303 1367 1394 1683 2122 1836 1805 1416 1267 1111 979 1268 1438 1821 1976 2231 2796 2266 2119 1700 2112 2401 1874 1966 1991 1670 1770
3992 3877 3852 3723 3651 3337 3164 2951 3049 3296 3402 3278 3083 2820 2757 2974 3113 3118 2942 2709 2375 2084 2010 2030 2010 1947 1924 1896 1834 1758 1605 1475 1466 1514 1578 1683 1814 1832 1862 1807 1680 1624 1642 1678 1659 1754 1670 1376 1189 1246 1494 1353 1319 1349 1306 1286 1224 1144 1166 1247 1290 1688 2539 2252 1920 1539 1359 1156 1105 1138 1350 1501 1614 1526 1781 1568 1676 1629 2359 2124 1822 1747 1957 1924 1913
3688 3629 3536 3416 3563 3393 2915 2563 2835 2954 2981 3106 3115 3123 3007 2857 2634 2468 2470 2474 2398 2328 2250 2237 2177 2047 1919 1855 1792 1689 1611 1585 1626 1603 1558 1662 1576 1512 1473 1557 1709 1618 1626 1654 1620 1576 1484 1392 1362 1228 1209 1270 1368 1345 1261 1152 1048 1102 1117 1025 1055 1106 1709 2087 1846 1429 1128 1022 1024 965 1063 952 1154 1416 1548 1541 1571 1984 1682 1889 1734 1862 2240 2114 2088
3195 3267 3481 3524 3372 3056 2342 2476 2977 2960 3036 3072 2984 2852 2715 2550 2427 2397 2396 2359 2262 2190 2135 2078 2017 1940 1884 1799 1733 1645 1558 1501 1425 1223 1130 1051 1492 1535 1491 1442 1443 1438 1389 1432 1386 1393 1378 1327 1292 1285 1354 1441 1560 1223 933 822 792 757 740 758 874 1050 1050 1288 1711 1904 1764 1538 1263 1105 1014 962 1058 1424 1702 1962 1673 1496 1577 1566 2044 2224 2028 1739 1530
2618 2481 2548 2504 2518 2599 2688 2667 2606 2588 2575 2519 2472 2432 2379 2275 2194 2132 2116 2106 2075 2008 1938 1886 1856 1831 1712 1644 1612 1523 1375 1243 1078 987 928 867 1164 1498 1337 1285 1251 1263 1338 1331 1271 1156 1120 1178 1188 1199 1232 1276 1285 1272 1310 1140 898 800 743 713 695 620 592 706 796 898 1240 1448 1486 1428 1381 1285 1344 1403 1644 1825 1380 1171 1044 1127 1226 1181 2081 1514 1301
1856 1956 2098 2100 2224 2258 2257 2294 2278 2332 2392 2324 2225 2092 2100 2111 2076 2002 1950 1862 1635 1608 1594 1575 1543 1556 1536 1510 1457 1401 1192 1051 907 849 849 800 791 1151 1186 1205 1189 1184 1228 1244 1242 1249 1252 1244 1200 1155 1106 1097 1282 1188 1190 1236 1260 1088 1004 980 923 856 764 697 643 603 722 788 928 1010 1134 1249 1286 1269 1371 1678 2135 1507 1108 1234 1006 1136 1328 1839 1595
1801 1877 2094 2138 2216 2171 2176 2182 2200 2202 2157 2092 2053 2012 2000 1940 1906 1855 1754 1664 1508 1450 1419 1401 1342 1331 1327 1289 1326 1288 1253 1180 992 932 908 900 857 837 1116 1170 1202 1162 1210 1232 1215 1230 1263 1286 1229 1152 1123 1185 1196 1257 1279 1328 1363 1452 1533 1484 1426 1374 1033 842 740 722 684 650 656 717 770 854 886 946 1175 1434 1726 1295 1021 868 1170 1548 1730 1780 1716
2100 2199 2264 2208 2154 2181 2172 2117 1998 1983 1958 1874 1765 1718 1686 1655 1636 1571 1498 1382 1272 1226 1238 1234 1227 1194 1166 1190 1134 1118 1098 937 754 752 758 745 708 644 986 1194 1204 1240 1236 1234 1250 1238 1242 1286 1266 1190 1156 1155 1230 1316 1329 1368 1428 1418 1338 1254 1186 1134 1153 1347 1458 1338 1101 846 714 722 892 998 994 1015 1090 1276 1340 1744 1584 1540 1944 1908 1688 1709 1713
1779 1848 1848 1934 1927 1972 1963 1880 1784 1703 1608 1528 1435 1354 1299 1310 1323 1336 1335 1298 1258 1214 1195 1165 1155 1196 1230 1237 1190 1123 1090 821 761 761 744 713 664 641 966 1075 1191 1234 1233 1249 1252 1285 1320 1340 1324 1288 1217 1191 1236 1183 1244 1424 1401 1328 1273 1195 1100 1031 1105 1171 1103 1225 1627 1757 1454 1226 1141 1224 1100 1079 1059 1191 1438 1665 2081 2775 2571 2070 1782 1447 1267
1688 1735 1739 1774 1852 1768 1683 1509 1342 1259 1192 1110 1088 1076 1106 1136 1126 1150 1082 1065 1045 1035 1014 1053 1078 1088 1129 1153 1193 1198 1161 1104 911 829 773 708 653 741 1173 1116 1189 1189 1175 1215 1228 1228 1245 1272 1283 1287 1298 1290 1238 1042 958 1013 1114 1152 1108 1066 1102 1065 971 1010 1037 992 958 978 1114 1256 1279 1266 1254 1230 1131 968 1045 1660 2093 2088 1835 1972 1713 1531 1529
1495 1548 1484 1590 1469 1294 1152 1091 1014 993 958 955 943 931 950 957 944 957 924 906 915 932 961 901 906 944 964 1034 1082 1118 1138 1093 870 755 672 614 558 851 1082 1180 1154 1162 1117 1083 1082 1102 1153 1064 1358 1276 1340 1452 1251 1028 1073 1111 1091 1095 1008 962 893 832 781 768 787 584 482 647 787 893 864 793 954 1224 1355 1265 1080 1018 844 1458 1665 1725 1422 1372 1155
1247 1221 1223 1109 1044 990 954 926 887 808 798 778 756 742 750 762 776 794 814 787 708 724 675 645 699 756 805 908 944 1051 1085 1022 823 690 625 586 561 703 1068 986 1079 1080 1033 1027 1036 1064 1118 1170 1158 1158 1228 1332 1186 1040 1015 1068 899 1090 1076 894 717 707 815 894 738 626 742 857 852 793 668 698 752 846 946 1048 1145 1121 1056 1316 1563 1492 1286 1404 1228
1042 971 906 821 725 716 669 653 634 611 605 614 628 652 660 665 695 702 708 586 508 530 635 522 590 625 738 843 893 915 980 1057 1063 832 725 651 636 594 910 1111 1100 972 936 933 1037 1068 1098 1138 1209 1028 1044 1087 1091 1067 1036 986 913 853 908 842 601 554 708 773 780 793 800 836 796 816 1047 1486 1869 1404 1198 1115 1015 1032 1008 1209 1669 1585 1509 1294 1122
743 664 594 512 512 514 520 501 516 487 480 494 530 554 607 607 588 570 556 577 600 582 581 592 568 608 697 751 800 866 841 900 906 660 604 535 496 492 683 874 956 932 833 784 754 735 841 964 994 980 835 798 888 933 864 705 653 593 646 828 785 711 694 764 767 830 722 762 850 1004 1077 1217 1098 627 531 545 704 1008 1061 1091 1279 1308 1345 1279 1369
394 442 405 366 396 375 392 421 345 289 322 390 404 388 397 419 334 349 408 404 380 395 426 478 465 502 606 692 712 768 829 831 948 767 618 584 533 517 520 532 792 662 532 452 468 595 822 906 940 967 912 756 641 586 540 439 397 472 516 593 570 536 476 538 676 719 509 474 550 574 730 921 921 832 677 718 531 564 673 818 935 1048 776 1154 1362
309 316 274 253 274 246 251 258 198 140 168 210 212 207 217 216 235 252 285 289 314 328 381 432 482 504 499 552 648 744 836 908 793 796 712 703 628 529 446 450 394 346 296 301 378 484 564 565 662 645 626 576 530 480 450 417 449 457 446 340 264 342 339 274 256 269 345 410 435 447 454 686 580 775 610 496 539 441 477 669 898 1225 1113 1068 994
221 132 58 120 116 101 83 76 51 63 67 94 86 107 124 140 152 205 257 316 336 337 336 371 386 397 426 489 566 592 642 809 901 830 551 392 350 390 416 308 227 158 71 166 260 320 330 394 345 183 0 134 196 182 200 261 270 196 142 140 184 227 204 240 228 213 252 284 384 443 517 614 641 558 782 732 884 610 768 897 972 957 896 1024 1123
186 82 60 29 8 5 13 19 21 24 37 50 67 82 82 92 115 224 323 281 256 241 254 192 322 372 383 370 354 430 539 636 649 590 421 375 172 29 0 0 0 0 0 0 2 22 21 0 0 109 60 0 0 0 0 0 0 0 0 158 164 137 112 107 106 180 302 306 333 406 472 637 594 665 637 1278 1110 928 717 614 704 792 776 818 619
34 7 1 2 4 15 19 20 24 38 54 78 86 92 99 116 175 202 179 209 268 279 229 153 163 105 132 141 182 266 202 133 166 172 104 129 40 0 0 0 0 0 0 0 0 0 0 0 0 0 0 0 0 0 0 0 0 0 121 217 204 147 36 52 150 308 336 351 368 376 409 395 424 450 621 646 734 668 625 590 618 593 610 651 648
0 0 1 7 18 24 26 24 31 40 77 68 99 115 146 184 316 235 181 158 208 235 257 200 155 135 94 21 7 4 4 5 6 8 12 0 0 0 0 0 0 4 30 32 20 1 3 1 2 2 0 10 8 6 126 164 220 256 254 242 231 226 178 124 151 283 333 398 428 485 393 425 396 460 412 266 334 489 544 527 498 426 339 281 254
0 3 12 28 34 32 33 33 48 40 43 68 82 115 104 106 152 203 278 178 135 151 90 70 18 5 4 2 2 2 1 2 2 4 0 0 0 0 0 0 0 0 1 2 2 7 12 8 2 39 75 126 200 270 280 275 262 272 267 256 254 234 220 162 141 214 310 446 356 422 390 374 398 381 410 420 423 398 350 319 302 310 260 240 246
13 18 28 31 40 35 40 42 50 58 59 70 111 132 126 126 168 218 166 27 49 109 146 172 130 48 6 4 3 3 3 3 5 0 0 0 0 0 0 1 0 1 1 0 0 2 2 12 82 128 214 273 297 299 164 18 213 232 301 212 178 266 294 295 332 369 397 344 372 401 372 353 376 380 362 359 352 358 346 361 355 332 346 340 274
24 24 27 33 32 31 37 41 38 52 49 49 64 66 36 42 132 178 79 77 56 70 90 63 3 2 2 4 8 5 4 4 0 0 0 5 0 0 0 0 0 0 0 4 3 1 16 52 110 116 151 204 280 305 12 20 225 168 153 270 330 376 354 363 397 440 372 400 441 359 220 110 361 342 399 361 342 366 360 338 358 296 228 204 181
31 30 34 34 34 35 36 38 46 46 48 10 27 85 90 66 90 80 59 30 0 0 0 0 1 1 0 1 0 0 0 0 0 0 0 0 1 0 0 0 4 17 24 23 26 24 25 36 46 82 90 124 194 142 62 103 312 232 155 242 304 326 343 294 314 225 74 296 258 255 322 312 286 350 388 380 363 351 356 350 330 278 228 209 183
33 32 32 35 43 46 42 48 43 38 24 16 60 77 124 187 73 44 14 0 0 0 0 0 0 0 0 0 0 0 0 0 0 1 1 0 1 0 0 3 24 35 39 36 33 35 36 56 92 56 12 101 9 55 2 134 234 219 188 181 112 1 73 86 240 164 269 263 270 276 278 228 244 143 94 233 271 287 262 222 177 170 37 2 2
32 31 32 37 35 37 29 34 27 8 13 36 82 84 118 157 86 10 2 2 0 0 1 0 0 0 0 0 0 0 0 0 0 0 1 3 6 2 0 0 22 36 38 57 94 122 114 14 11 7 4 4 4 2 2 3 76 148 7 48 8 12 10 86 264 254 284 302 255 138 233 50 188 9 12 13 192 186 6 1 1 2 0 62 0
29 31 36 34 27 16 11 15 10 12 16 26 32 48 63 10 18 3 2 10 20 8 5 1 0 0 0 0 0 0 1 2 2 1 1 0 2 6 4 8 22 29 28 27 32 18 12 11 10 8 7 7 6 6 5 5 4 6 12 16 14 6 1 49 5 88 89 86 80 24 31 37 34 30 22 18 13 12 10 6 13 31 9 0 0
11 11 10 9 19 18 10 7 8 31 29 48 54 14 6 8 6 6 6 5 6 7 7 12 10 0 1 4 11 4 2 2 1 0 0 0 2 6 3 6 12 12 17 21 16 7 10 10 8 7 4 4 31 9 10 10 10 14 16 10 4 125 0 0 0 33 0 0 132 12 14 175 177 4 10 5 1 6 1 22 0 0 0 68 77
8 5 4 4 4 3 6 11 13 24 36 40 15 8 8 5 7 8 6 7 6 5 6 17 22 5 1 22 28 11 5 0 0 0 0 0 0 0 4 2 8 8 12 32 32 18 15 13 10 11 1 1 11 10 30 7 9 11 13 12 14 12 11 6 42 22 0 0 0 0 0 16 4 0 2 0 0 0 0 0 0 0 0 1 1
4 4 1 2 6 5 7 34 62 98 21 12 6 8 7 8 8 6 6 6 3 0 2 1 2 0 0 7 24 8 0 0 0 1 0 0 0 2 7 5 4 6 14 21 16 14 11 10 7 6 2 0 0 0 1 2 4 6 1 0 5 14 0 6 17 13 0 0 4 0 0 0 0 0 0 0 3 0 0 0 0 0 0 0 0
2 1 2 10 18 44 48 70 77 22 20 9 14 17 15 6 6 6 8 8 5 2 2 1 1 0 1 0 9 14 0 0 0 0 0 0 0 10 15 20 13 6 10 17 25 18 18 18 17 16 16 15 14 13 14 16 15 5 0 0 0 0 10 10 0 0 0 0 0 0 0 0 0 0 0 0 0 0 0 0 0 0 0 0 0
5 14 24 29 28 50 55 50 35 16 10 15 11 17 8 5 6 4 5 5 2 2 2 0 0 0 1 1 1 18 1 0 0 0 1 0 0 6 8 8 6 6 1 0 5 14 14 11 10 6 4 4 5 3 0 0 1 1 1 0 0 0 0 0 0 0 0 0 0 0 0 0 0 0 0 0 0 0 0 0 0 4 2 2 0
26 29 39 26 41 42 25 24 17 16 23 28 22 13 6 6 9 10 11 7 2 1 2 1 1 0 4 3 4 16 13 10 2 2 0 0 0 0 0 0 0 0 0 0 0 0 0 0 0 0 0 0 0 0 0 0 0 0 0 0 0 0 0 0 0 0 0 0 1 6 0 0 0 0 0 0 0 2 2 5 9 2 0 0 0
31 22 30 26 18 22 17 18 24 20 12 15 14 12 11 17 17 8 10 6 3 1 2 1 0 0 0 0 0 5 23 28 28 20 18 12 14 8 2 1 0 0 0 0 0 0 0 0 0 0 0 0 0 0 0 0 0 0 0 0 0 0 0 0 0 0 0 0 0 0 0 0 0 0 0 0 0 0 0 0 0 0 0 0 0
22 8 3 27 6 8 18 21 22 22 14 12 12 12 7 14 22 21 22 17 9 4 2 1 6 12 4 0 0 0 12 23 28 27 21 20 16 11 10 11 7 1 0 0 0 0 0 0 0 0 0 0 0 0 0 0 0 0 0 0 0 0 0 0 0 0 0 0 0 0 0 0 0 0 0 0 0 0 0 0 0 0 0 0 0
35 30 22 32 27 18 16 42 40 24 10 15 23 19 21 25 28 25 20 7 3 2 2 0 6 20 30 12 0 8 20 19 11 9 6 3 1 0 0 0 0 0 0 0 0 0 0 0 0 0 0 0 0 0 0 0 0 0 0 0 0 0 0 0 0 0 0 0 0 0 0 0 0 0 0 0 0 0 0 0 0 0 0 0 0
14 23 44 22 28 35 48 49 50 52 38 25 26 25 16 17 14 12 1 0 0 0 0 2 19 32 54 69 37 7 2 0 0 0 0 0 0 0 0 0 0 0 0 0 0 0 0 0 0 0 0 0 0 0 0 0 0 0 0 0 0 0 0 0 0 0 0 0 0 0 0 0 0 0 0 0 0 0 0 0 0 0 0 0 0
11 13 17 20 25 32 36 34 37 40 30 16 14 8 9 7 6 0 0 0 0 0 5 33 53 64 15 11 4 0 0 0 0 0 0 0 0 0 0 0 0 0 0 0 0 0 0 0 0 0 0 0 0 0 0 0 0 0 0 0 0 0 0 0 0 0 0 0 0 0 0 0 0 0 0 0 0 0 0 0 0 0 0 0 0
12 15 16 15 14 17 13 4 0 2 3 6 8 3 1 0 2 3 5 6 6 4 4 0 0 0 0 0 0 0 0 0 0 0 0 0 0 0 0 0 0 0 0 0 0 0 0 0 0 0 0 0 0 0 0 0 0 0 0 0 0 0 0 0 0 0 0 0 0 0 0 0 0 0 0 0 0 0 0 0 0 0 0 0 0
3 0 0 0 0 7 10 12 2 2 0 3 2 6 5 9 3 1 5 0 0 0 0 0 0 0 0 0 0 0 0 0 0 0 0 0 0 0 0 0 0 0 0 0 0 0 0 0 0 0 0 0 0 0 0 0 0 0 0 0 0 0 0 0 0 0 0 0 0 0 0 0 0 0 0 0 0 0 0 0 0 0 0 0 0
0 0 0 0 0 0 7 3 1 2 1 6 6 10 21 38 54 46 19 25 6 0 0 0 0 0 0 0 0 0 0 0 0 0 0 0 0 0 0 0 0 0 0 0 0 0 0 0 0 0 0 0 0 0 0 0 0 0 0 0 0 0 0 0 0 0 0 0 0 0 0 0 0 0 0 0 0 0 0 0 0 0 0 0 0
0 0 0 0 0 0 4 17 5 0 0 8 21 63 75 55 27 21 9 1 0 0 0 0 0 0 0 0 0 0 0 0 0 0 0 0 0 0 0 0 0 0 0 0 0 0 0 0 0 0 0 0 0 0 0 0 0 0 0 0 0 0 0 0 0 0 0 0 0 0 0 0 0 0 0 0 0 0 0 0 0 0 0 0 0
0 0 0 0 0 0 8 6 12 10 17 21 44 80 89 97 28 4 2 2 4 3 1 0 0 0 0 0 0 0 0 0 0 0 0 0 0 0 0 0 0 0 0 0 0 0 0 0 0 0 0 0 0 0 0 0 0 0 0 0 0 0 0 0 0 0 0 0 0 0 0 0 0 0 0 0 0 0 0 0 0 0 0 0 0
0 0 0 0 0 0 0 0 0 0 0 0 0 0 1 0 0 0 0 0 0 0 0 1 1 0 0 0 0 0 0 0 0 0 0 0 0 0 0 0 0 0 0 0 0 0 0 0 0 0 0 0 0 0 0 0 0 0 0 0 0 0 0 0 0 0 0 0 0 0 0 0 0 0 0 0 0 0 0 0 0 0 0 0 0
Wind_Speed
34 34 32 31 29 28 29 32 37 41 41 40 40 40 37 35 nan nan 38 38 38 35 34 34 35 34 32 32 30 31 33 32 33 35 35 35 34 33 32 32 30 27 27 25 25 26 28 29 28 28 28 27 27 26 27 25 27 28 28 27 27 30 28 25 19 17 23 27 29 31 30 32 31 34 32 34 35 46 44 37 37 35 36 34 30
33 33 34 32 32 33 31 35 36 40 42 43 42 39 38 38 40 39 37 39 39 36 35 35 35 36 35 34 34 33 34 36 35 36 35 34 33 34 33 32 32 31 31 29 28 28 29 28 27 26 29 29 28 27 27 27 28 29 29 30 30 29 30 26 21 18 17 25 27 31 33 34 32 35 33 30 38 41 36 33 38 34 30 29 29
34 35 35 34 34 33 34 36 38 42 42 42 41 40 39 40 40 40 41 42 42 40 38 38 40 39 38 38 36 33 31 31 32 33 33 33 32 32 32 31 32 32 31 31 30 31 29 30 29 30 31 29 28 29 29 30 30 29 28 30 29 29 30 29 25 20 18 21 28 30 33 35 32 31 31 37 39 35 35 37 37 34 31 30 30
36 36 36 36 35 34 35 37 39 39 42 42 41 39 38 39 40 42 43 43 41 42 42 40 41 42 39 37 34 33 31 29 27 28 28 30 31 30 30 31 32 33 35 34 33 32 31 30 29 31 32 31 32 32 33 32 31 31 30 31 32 31 30 29 27 23 22 21 26 29 33 33 33 32 36 38 36 37 37 36 35 35 36 32 29
37 36 35 35 35 35 36 38 39 40 39 41 41 40 40 40 41 41 42 41 41 41 39 37 37 37 35 34 32 32 32 31 29 29 29 29 29 28 28 30 31 33 35 37 37 36 34 32 31 32 33 31 31 31 33 33 33 33 32 33 33 32 32 34 33 28 24 22 23 29 32 33 35 37 41 38 38 38 37 35 35 36 38 35 31
37 36 35 35 35 36 38 39 40 41 41 40 40 40 41 41 42 43 43 43 43 42 39 38 35 33 33 32 31 30 31 31 29 28 27 27 26 26 27 28 28 31 33 35 37 38 37 37 35 35 35 34 33 34 34 34 35 34 34 34 35 35 36 36 33 30 27 22 21 25 31 34 38 39 37 37 38 40 37 34 36 39 40 37 32
37 37 37 37 37 37 38 39 42 43 42 42 42 42 42 42 42 42 42 41 41 39 38 37 36 34 33 32 32 31 30 30 31 30 30 29 29 27 26 26 27 28 30 31 34 36 37 38 38 38 38 37 36 35 35 35 36 35 35 35 36 36 37 38 36 32 30 28 26 26 26 32 36 33 34 37 38 39 38 37 35 38 40 38 35
39 39 39 38 38 39 40 41 42 43 43 44 44 44 44 44 43 43 42 40 39 38 37 37 37 36 35 34 33 33 32 32 33 33 32 32 32 30 28 27 27 27 28 29 31 33 35 36 38 38 38 39 39 39 39 38 39 37 38 38 37 36 37 38 38 36 33 31 29 28 29 30 33 33 41 48 40 34 35 39 36 37 38 38 37
41 41 40 40 40 41 42 43 43 43 44 45 45 44 44 44 44 43 41 39 38 38 38 37 37 37 37 36 36 36 35 34 35 35 35 34 33 31 29 28 27 26 27 28 30 32 34 34 34 35 34 31 32 34 36 37 39 39 39 40 40 39 39 40 39 38 36 33 31 31 31 30 30 33 38 40 35 31 37 40 37 36 38 41 38
41 42 41 41 41 43 44 44 44 45 45 46 46 45 45 44 43 41 40 39 39 39 40 39 39 38 37 37 38 39 39 39 37 33 34 36 34 33 31 30 29 28 27 28 29 29 30 30 30 25 26 27 28 29 30 31 32 36 37 39 39 40 39 39 39 39 38 35 32 33 32 30 29 29 33 36 36 37 37 38 37 39 40 39 39
43 43 42 44 44 45 45 45 47 48 47 47 46 46 44 43 42 41 41 41 41 41 41 39 39 38 38 38 38 39 39 39 35 35 35 33 34 33 32 31 29 28 26 26 27 28 28 28 29 26 25 26 26 24 25 25 27 28 28 29 34 38 40 38 38 39 39 37 36 35 35 30 28 31 33 37 43 41 38 35 37 42 40 39 36
43 43 43 44 45 46 47 47 48 47 47 47 46 45 44 42 41 41 41 41 41 42 41 39 38 38 38 38 37 37 37 35 33 34 34 34 35 34 33 32 32 30 29 27 27 28 28 28 29 30 30 30 29 30 28 27 26 26 26 27 28 29 32 35 36 37 38 37 36 36 36 32 31 34 35 38 39 41 39 37 34 34 38 37 36
44 44 45 46 46 47 48 47 47 47 46 46 44 43 43 42 42 42 41 41 40 39 40 39 39 38 38 37 35 35 34 32 31 32 32 32 32 34 33 31 31 31 29 28 27 27 28 28 28 30 31 28 30 32 32 32 30 29 30 29 28 28 30 30 31 34 37 37 37 35 35 35 33 34 36 38 45 43 45 39 33 30 34 36 35
44 45 46 47 47 46 46 46 45 45 44 44 43 42 42 41 41 41 40 40 39 39 39 38 38 38 37 35 34 33 32 31 29 29 31 32 31 33 34 31 31 30 29 28 27 27 27 27 28 29 31 33 34 34 35 36 36 37 37 39 39 36 33 32 32 31 34 38 36 33 32 35 33 34 37 41 43 44 41 38 36 34 34 34 35
45 46 46 46 46 45 45 45 44 43 43 42 41 40 39 39 40 41 41 41 41 40 38 37 36 35 34 33 32 31 31 28 29 29 30 31 31 32 34 32 31 30 29 28 27 26 26 27 27 27 30 31 34 34 36 37 39 39 39 39 39 39 40 41 42 43 42 43 38 33 30 32 34 33 35 39 39 41 41 38 39 39 35 36 40
45 46 45 45 45 45 45 44 43 42 41 40 40 39 40 40 40 42 41 41 40 38 36 35 34 33 33 32 31 30 30 28 28 28 28 29 29 32 32 30 29 28 28 27 27 27 28 28 29 28 28 29 29 28 31 37 38 37 38 38 38 39 39 38 38 40 42 43 40 37 35 33 34 35 36 37 40 40 40 40 43 44 41 39 37
45 45 45 45 45 45 44 43 41 40 39 39 40 40 41 41 41 41 39 38 37 36 34 34 34 33 31 31 30 30 30 29 28 28 28 28 31 33 31 29 28 27 27 27 27 27 28 29 28 28 27 28 27 27 30 33 35 35 35 35 37 39 38 39 39 38 38 36 33 30 29 31 32 31 32 33 36 40 43 41 38 41 42 41 38
45 45 45 45 45 44 43 41 40 40 40 40 40 41 41 41 39 39 38 36 35 34 34 33 32 32 31 30 30 30 29 29 27 27 27 28 31 32 29 28 26 27 26 26 27 28 26 21 24 27 27 28 28 28 28 32 34 34 33 32 32 33 34 37 41 42 39 36 33 30 28 28 29 28 29 30 32 38 42 38 37 41 40 41 36
45 46 45 45 44 43 42 41 40 39 40 40 40 39 39 38 37 37 36 35 33 32 31 31 31 31 30 28 26 26 28 28 25 25 26 27 30 34 30 28 26 26 27 27 27 27 26 25 23 26 26 26 25 27 29 34 33 33 32 32 31 29 31 37 38 38 40 42 42 40 37 34 36 39 34 29 29 35 39 36 37 40 42 41 38
46 45 45 44 43 42 41 39 39 39 39 39 39 38 37 36 36 35 34 34 32 31 30 30 28 28 28 27 27 27 27 27 27 24 26 27 29 32 30 28 26 25 26 25 25 25 26 27 27 24 26 26 26 26 27 30 34 33 34 34 33 29 33 36 37 37 37 38 38 36 36 39 41 41 39 37 36 36 36 35 37 41 42 40 40
45 44 44 42 41 39 39 39 38 39 39 38 37 36 36 35 35 34 34 34 33 32 31 31 30 29 29 29 28 28 28 27 26 25 25 25 25 29 30 26 25 25 24 24 23 23 26 28 29 29 30 32 32 31 30 29 31 36 34 34 33 32 34 36 35 34 37 37 37 37 36 37 39 40 39 38 39 38 36 33 35 39 40 40 38
44 42 41 39 38 37 38 39 39 39 38 37 36 35 35 34 34 34 34 33 31 30 30 31 31 30 30 30 30 29 28 25 26 24 24 23 25 29 30 27 27 30 30 27 24 24 26 29 30 30 30 32 31 31 29 30 30 37 34 30 28 29 32 35 36 37 37 37 36 34 33 34 35 37 37 38 38 38 35 33 34 38 38 36 39
41 39 38 38 38 37 38 37 38 38 37 36 34 33 33 32 31 31 30 29 28 27 27 28 28 28 28 29 30 30 29 29 26 28 30 36 33 29 26 27 26 29 28 26 26 28 28 28 28 27 28 30 33 35 36 34 36 36 30 29 29 28 31 35 35 34 35 34 33 32 30 32 33 34 37 37 38 39 37 35 34 36 38 37 34
38 37 nan 38 37 37 nan nan nan nan nan nan nan 32 30 30 29 29 29 28 28 27 26 25 25 25 25 26 27 28 29 32 34 34 32 28 23 24 26 26 29 32 nan 30 30 30 30 30 30 30 nan 30 28 30 30 31 32 31 31 30 31 30 33 33 32 32 31 30 29 27 27 29 32 33 35 37 38 39 38 37 36 35 36 36 37
38 nan nan nan nan nan nan nan nan nan nan nan nan nan nan nan 27 28 28 28 28 26 25 25 25 26 26 25 26 27 29 31 32 31 30 28 28 nan nan nan nan nan nan nan nan nan nan nan nan 21 nan nan nan nan nan nan nan nan nan 25 28 33 33 32 29 28 28 27 27 26 26 28 31 33 38 39 44 45 44 47 46 48 51 51 48
nan nan nan nan nan nan nan nan nan nan nan nan nan nan nan 28 26 25 26 27 28 27 27 27 29 30 29 29 27 27 27 28 29 30 31 30 nan nan nan nan nan nan nan nan nan nan nan nan nan nan nan nan nan nan nan nan nan nan 19 24 31 30 nan nan 28 28 28 27 26 26 28 35 38 38 40 42 45 43 44 45 46 48 51 51 49
nan nan nan nan nan nan nan nan nan nan nan nan nan 30 29 28 27 26 26 26 26 28 28 29 29 31 nan nan nan nan nan nan nan nan nan nan nan nan nan nan nan nan nan nan nan nan nan nan nan nan nan nan nan nan 13 12 14 16 18 21 24 25 24 25 25 25 25 25 26 28 30 33 35 36 37 42 44 44 45 46 47 47 49 52 52
nan nan nan nan nan nan nan nan nan nan nan nan nan 28 27 25 24 25 27 27 26 25 nan nan nan nan nan nan nan nan nan nan nan nan nan nan nan nan nan nan nan nan nan nan nan nan nan nan nan nan nan 19 18 17 15 17 14 14 16 17 18 19 18 18 20 22 22 23 26 31 34 37 38 39 39 42 45 45 44 45 46 46 46 47 49
nan nan nan nan nan nan nan nan nan nan nan nan 28 27 26 24 23 24 26 nan nan 33 31 32 32 nan nan nan nan nan nan nan nan nan nan nan nan nan nan nan nan nan nan nan nan nan nan nan nan 13 14 13 14 13 12 nan 13 14 13 15 15 17 19 21 22 21 21 22 24 31 35 37 39 39 41 43 44 45 44 46 46 47 47 49 51
nan nan nan nan nan nan nan nan nan nan nan nan nan nan nan nan 26 28 nan nan nan nan nan nan nan nan nan nan nan nan nan nan nan nan nan nan nan nan nan nan nan nan nan nan nan nan nan nan 10 10 9 9 9 9 nan nan 11 14 16 17 16 16 21 26 28 29 31 31 33 34 35 36 36 37 40 41 42 43 44 44 44 44 46 47 48
nan nan nan nan nan nan nan nan nan nan nan nan nan nan nan nan nan nan nan nan nan nan nan nan nan nan nan nan nan nan nan nan nan nan nan nan nan nan nan nan nan nan nan nan nan nan nan nan nan nan nan 6 5 5 nan 13 18 22 22 24 23 24 26 26 27 28 nan 30 30 31 33 34 34 34 36 37 38 39 40 40 40 41 43 43 43
nan nan nan nan nan nan nan nan nan nan nan nan nan nan 23 27 nan nan nan nan nan nan nan nan nan nan nan nan nan nan nan nan nan nan nan nan nan nan nan nan nan nan nan nan nan nan nan nan nan nan nan 16 nan nan nan 18 19 20 22 23 22 nan nan nan 24 27 29 31 32 32 33 33 31 30 nan 34 36 37 37 38 39 39 nan nan nan
nan nan nan nan nan nan nan nan nan nan nan nan nan nan 26 29 nan nan nan nan nan nan nan nan nan nan nan nan nan nan nan nan nan nan nan nan nan nan nan nan nan nan nan nan nan 17 15 nan nan nan nan nan nan nan nan nan nan 20 nan nan nan nan nan nan 26 28 29 31 32 32 32 nan 30 nan nan nan 34 34 nan nan nan nan nan nan nan
nan nan nan nan nan nan nan nan nan nan nan nan nan nan nan nan nan nan nan nan nan nan nan nan nan nan nan nan nan nan nan nan nan nan nan nan nan nan nan nan nan nan nan nan nan nan nan nan nan nan nan nan nan nan nan nan nan nan nan nan nan nan nan nan nan nan nan nan nan nan nan nan nan nan nan nan nan nan nan nan nan nan nan nan nan
nan nan nan nan nan nan nan nan nan nan nan nan nan nan nan nan nan nan nan nan nan nan nan nan nan nan nan nan nan nan nan nan nan nan nan nan nan nan nan nan nan nan nan nan nan nan nan nan nan nan nan nan nan nan nan nan nan nan nan nan nan 21 nan nan nan nan nan nan 29 nan nan 29 30 nan nan nan nan nan nan nan nan nan nan nan nan
nan nan nan nan nan nan nan nan nan nan nan nan nan nan nan nan nan nan nan nan nan nan nan nan nan nan nan nan nan nan nan nan nan nan nan nan nan nan nan nan nan nan nan nan nan nan nan nan nan nan nan nan nan nan nan nan nan nan nan nan nan nan nan nan nan nan nan nan nan nan nan nan nan nan nan nan nan nan nan nan nan nan nan nan nan
nan nan nan nan nan nan nan nan nan nan nan nan nan nan nan nan nan nan nan nan nan nan nan nan nan nan nan nan nan nan nan nan nan nan nan nan nan nan nan nan nan nan nan nan nan nan nan nan nan nan nan nan nan nan nan nan nan nan nan nan nan nan nan nan nan nan nan nan nan nan nan nan nan nan nan nan nan nan nan nan nan nan nan nan nan
nan nan nan nan nan nan nan nan nan nan nan nan nan nan nan nan nan nan nan nan nan nan nan nan nan nan nan nan nan nan nan nan nan nan nan nan nan nan nan nan nan nan nan nan nan nan nan nan nan nan nan nan nan nan nan nan nan nan nan nan nan nan nan nan nan nan nan nan nan nan nan nan nan nan nan nan nan nan nan nan nan nan nan nan nan
nan nan nan nan nan nan nan nan nan nan nan nan nan nan nan nan nan nan nan nan nan nan nan nan nan nan nan nan nan nan nan nan nan nan nan nan nan nan nan nan nan nan nan nan nan nan nan nan nan nan nan nan nan nan nan nan nan nan nan nan nan nan nan nan nan nan nan nan nan nan nan nan nan nan nan nan nan nan nan nan nan nan nan nan nan
nan nan nan nan nan nan nan nan nan nan nan nan nan nan nan nan nan nan nan nan nan nan nan nan nan nan nan nan nan nan nan nan nan nan nan nan nan nan nan nan nan nan nan nan nan nan nan nan nan nan nan nan nan nan nan nan nan nan nan nan nan nan nan nan nan nan nan nan nan nan nan nan nan nan nan nan nan nan nan nan nan nan nan nan nan
nan nan nan nan nan nan nan nan nan nan nan nan nan nan nan nan nan nan nan nan nan nan nan nan nan nan nan nan nan nan nan nan nan nan nan nan nan nan nan nan nan nan nan nan nan nan nan nan nan nan nan nan nan nan nan nan nan nan nan nan nan nan nan nan nan nan nan nan nan nan nan nan nan nan nan nan nan nan nan nan nan nan nan nan nan
nan nan nan nan nan nan nan nan nan nan nan nan nan nan nan nan nan nan nan nan nan nan nan nan nan nan nan nan nan nan nan nan nan nan nan nan nan nan nan nan nan nan nan nan nan nan nan nan nan nan nan nan nan nan nan nan nan nan nan nan nan nan nan nan nan nan nan nan nan nan nan nan nan nan nan nan nan nan nan nan nan nan nan nan nan
nan nan nan nan nan nan nan nan nan nan nan nan nan nan nan nan nan nan nan nan nan nan nan nan nan nan nan nan nan nan nan nan nan nan nan nan nan nan nan nan nan nan nan nan nan nan nan nan nan nan nan nan nan nan nan nan nan nan nan nan nan nan nan nan nan nan nan nan nan nan nan nan nan nan nan nan nan nan nan nan nan nan nan nan nan
nan nan nan nan nan nan nan nan nan nan nan nan nan nan nan nan nan nan nan nan nan nan nan nan nan nan nan nan nan nan nan nan nan nan nan nan nan nan nan nan nan nan nan nan nan nan nan nan nan nan nan nan nan nan nan nan nan nan nan nan nan nan nan nan nan nan nan nan nan nan nan nan nan nan nan nan nan nan nan nan nan nan nan nan nan
nan nan nan nan nan nan nan nan nan nan nan nan nan nan nan nan nan nan nan nan nan nan nan nan nan nan nan nan nan nan nan nan nan nan nan nan nan nan nan nan nan nan nan nan nan nan nan nan nan nan nan nan nan nan nan nan nan nan nan nan nan nan nan nan nan nan nan nan nan nan nan nan nan nan nan nan nan nan nan nan nan nan nan nan nan
nan nan nan nan nan nan nan nan nan nan nan nan nan nan nan nan nan nan nan nan nan nan nan nan nan nan nan nan nan nan nan nan nan nan nan nan nan nan nan nan nan nan nan nan nan nan nan nan nan nan nan nan nan nan nan nan nan nan nan nan nan nan nan nan nan nan nan nan nan nan nan nan nan nan nan nan nan nan nan nan nan nan nan nan nan
nan nan nan nan nan nan nan nan nan nan nan nan nan nan nan nan nan nan nan nan nan nan nan nan nan nan nan nan nan nan nan nan nan nan nan nan nan nan nan nan nan nan nan nan nan nan nan nan nan nan nan nan nan nan nan nan nan nan nan nan nan nan nan nan nan nan nan nan nan nan nan nan nan nan nan nan nan nan nan nan nan nan nan nan nan
nan nan nan nan nan nan nan nan nan nan nan nan nan nan nan nan nan nan nan nan nan nan nan nan nan nan nan nan nan nan nan nan nan nan nan nan nan nan nan nan nan nan nan nan nan nan nan nan nan nan nan nan nan nan nan nan nan nan nan nan nan nan nan nan nan nan nan nan nan nan nan nan nan nan nan nan nan nan nan nan nan nan nan nan nan
nan nan nan nan nan nan nan nan nan nan nan nan nan nan nan nan nan nan nan nan nan nan nan nan nan nan nan nan nan nan nan nan nan nan nan nan nan nan nan nan nan nan nan nan nan nan nan nan nan nan nan nan nan nan nan nan nan nan nan nan nan nan nan nan nan nan nan nan nan nan nan nan nan nan nan nan nan nan nan nan nan nan nan nan nan
nan nan nan nan nan nan nan nan nan nan nan nan nan nan nan nan nan nan nan nan nan nan nan nan nan nan nan nan nan nan nan nan nan nan nan nan nan nan nan nan nan nan nan nan nan nan nan nan nan nan nan nan nan nan nan nan nan nan nan nan nan nan nan nan nan nan nan nan nan nan nan nan nan nan nan nan nan nan nan nan nan nan nan nan nan
nan nan nan nan nan nan nan nan nan nan nan nan nan nan nan nan nan nan nan nan nan nan nan nan nan nan nan nan nan nan nan nan nan nan nan nan nan nan nan nan nan nan nan nan nan nan nan nan nan nan nan nan nan nan nan nan nan nan nan nan nan nan nan nan nan nan nan nan nan nan nan nan nan nan nan nan nan nan nan nan nan nan nan nan nan
Wind_Direction
340 338 337 333 328 329 329 318 322 319 319 320 320 324 321 320 nan nan 315 312 307 307 307 307 304 302 301 297 294 293 291 292 290 286 285 285 284 283 282 283 284 281 277 274 273 272 269 265 263 262 261 261 262 263 264 264 263 263 263 262 268 271 274 272 263 250 256 258 250 249 250 248 245 249 246 247 248 248 246 241 242 240 250 259 267
337 335 333 329 328 326 323 314 316 317 319 321 323 323 323 320 320 316 315 311 310 310 309 305 304 305 305 303 296 290 286 282 279 279 280 279 277 278 280 282 283 283 281 278 274 271 270 268 264 259 258 258 258 261 263 264 263 263 264 265 270 272 274 273 266 255 246 254 254 253 251 251 247 252 251 251 251 257 265 270 266 268 270 268 270
335 333 329 326 325 322 320 317 315 319 320 319 321 323 322 319 315 313 311 310 310 310 310 308 306 305 302 299 296 292 288 285 281 280 279 277 274 272 273 273 275 276 277 276 273 270 269 268 268 266 265 263 261 261 262 262 263 264 264 265 265 270 274 277 272 262 252 249 254 251 252 254 255 253 251 252 256 261 265 260 260 260 261 270 272
331 329 327 326 323 320 316 315 317 318 320 319 319 322 319 315 312 311 310 309 312 310 310 311 309 305 303 301 301 300 298 295 293 290 287 285 282 278 273 271 271 272 273 272 271 269 267 264 263 263 261 259 258 257 258 261 262 262 261 263 264 266 269 271 276 269 257 249 256 256 254 252 255 256 255 256 256 257 259 262 263 261 261 261 266
327 325 324 321 319 317 316 315 317 319 322 319 322 319 316 315 311 311 310 310 309 307 307 307 306 305 306 306 306 306 304 301 298 295 291 289 286 283 278 273 270 269 269 269 270 270 268 267 264 263 262 260 260 258 257 258 260 261 262 263 264 263 264 262 259 259 261 261 257 257 255 255 254 254 257 256 252 253 254 257 260 260 260 256 254
322 321 318 318 317 317 317 317 319 319 319 317 317 316 313 311 309 307 307 307 307 306 306 306 308 309 307 307 304 301 300 299 299 299 297 294 291 286 282 279 274 271 269 268 268 268 268 267 266 265 264 263 261 259 258 257 258 259 260 262 264 264 266 268 268 268 264 258 254 251 256 255 253 255 259 261 258 255 254 253 255 257 260 259 256
318 317 316 318 317 317 318 317 317 318 318 317 316 315 314 313 310 309 308 308 307 306 306 306 305 306 305 304 302 297 296 297 296 296 296 295 293 290 287 283 279 274 271 269 267 266 266 265 264 264 265 265 263 261 260 258 258 259 259 259 260 262 267 268 268 265 263 260 257 255 253 255 258 256 259 259 254 254 258 255 253 255 258 259 254
315 315 315 316 317 318 317 316 315 316 315 315 316 316 315 313 312 311 309 308 307 306 306 305 303 302 302 301 299 296 294 292 292 292 292 293 293 292 289 284 279 275 272 270 268 266 265 264 263 263 264 264 263 262 261 259 259 258 259 260 260 261 265 266 267 266 263 260 259 259 263 260 259 256 252 252 251 254 259 258 254 253 255 257 258
313 314 315 316 316 316 314 312 312 312 311 312 313 314 314 312 311 310 308 307 306 305 303 302 300 299 296 295 293 291 289 288 287 287 286 287 289 290 289 287 283 277 271 268 267 266 264 264 265 266 265 264 266 265 264 263 260 258 258 259 259 260 262 263 265 267 265 262 260 260 258 259 259 258 257 258 260 262 262 260 254 253 253 255 257
312 313 314 313 313 313 313 314 314 314 315 315 314 313 312 310 310 309 308 306 305 304 302 301 300 299 296 295 293 291 289 287 287 290 288 284 285 286 286 284 280 276 271 267 265 265 266 265 265 264 264 264 264 264 264 265 265 263 260 259 260 260 260 261 263 265 266 264 264 261 258 258 261 264 262 260 258 254 254 260 258 253 253 255 257
311 312 312 313 313 313 312 312 313 314 313 312 311 311 310 310 309 307 306 304 304 302 301 301 300 298 296 293 292 290 288 286 288 288 288 289 284 284 286 285 283 280 276 270 266 265 266 266 265 264 264 266 267 271 270 268 266 266 265 264 262 261 258 259 260 263 264 265 263 263 262 259 260 263 263 259 258 256 256 258 256 255 255 257 257
308 310 310 310 310 311 311 312 312 312 312 311 310 309 308 308 307 305 304 304 303 302 302 302 301 298 296 295 293 291 290 290 290 287 287 287 284 281 281 282 282 280 277 275 270 266 264 264 265 266 267 267 265 264 266 270 270 269 266 265 265 265 267 264 260 259 261 260 260 261 261 261 258 261 262 262 259 254 251 252 255 252 253 254 256
308 309 310 310 310 311 312 312 312 312 311 309 308 307 306 305 304 302 303 302 301 302 302 301 300 299 298 297 296 294 292 293 293 291 290 289 287 282 277 278 280 280 278 275 271 268 266 264 264 265 265 266 264 263 262 261 261 263 265 264 263 265 267 270 270 265 259 259 258 257 260 258 255 257 261 261 261 259 254 250 257 258 252 253 255
308 309 310 310 310 310 310 310 310 309 308 306 305 303 302 301 300 300 300 301 302 302 302 303 302 301 300 299 298 296 295 293 294 292 291 292 289 283 276 275 276 277 276 275 272 270 270 269 267 266 265 265 264 264 263 261 260 258 258 258 259 261 264 266 267 269 268 263 261 258 258 260 257 254 258 260 261 261 256 250 254 261 259 256 255
308 308 308 308 308 309 309 308 307 304 302 301 301 302 302 302 303 303 304 303 302 301 301 300 299 299 299 298 297 296 292 292 292 291 290 291 290 284 276 273 273 275 275 274 274 275 276 276 275 271 267 266 266 265 263 262 260 259 258 257 256 255 256 258 261 263 264 265 265 263 259 259 258 255 255 259 261 261 262 257 255 261 262 255 251
306 307 308 307 307 306 304 303 302 302 302 302 302 302 302 302 302 302 302 301 300 301 301 301 300 299 298 297 296 296 294 294 293 292 292 290 291 283 278 274 273 273 274 273 274 276 278 279 277 273 269 268 269 271 268 264 261 259 259 258 257 257 257 259 262 262 263 264 265 263 260 259 259 258 257 258 260 261 258 253 250 252 255 254 253
307 306 305 304 303 302 301 301 301 302 303 304 304 304 303 302 302 301 301 301 301 301 301 300 298 297 297 296 295 294 293 292 292 293 294 294 287 283 281 277 274 274 274 274 275 278 280 279 276 273 271 270 271 273 271 269 264 261 259 257 258 258 258 257 262 266 268 269 268 266 263 260 258 258 258 260 261 261 259 257 255 254 254 255 255
304 303 302 301 301 301 302 303 305 305 304 303 302 302 301 302 302 301 301 300 300 300 299 299 299 299 299 298 296 293 292 294 297 296 296 295 292 286 283 280 279 277 275 275 276 276 276 279 279 275 275 273 271 268 268 269 266 264 261 258 256 256 257 258 256 257 265 271 273 273 270 266 265 263 260 260 260 260 260 260 258 256 253 254 253
302 301 301 302 303 302 302 301 300 299 300 301 301 301 302 302 302 301 301 301 302 302 302 301 299 298 296 295 293 292 291 290 292 293 292 292 290 286 284 281 279 277 274 273 273 273 271 272 280 282 280 278 281 280 279 274 268 268 265 260 257 255 257 258 257 255 255 257 260 261 258 256 256 256 253 253 256 259 261 261 258 255 255 253 252
301 302 302 300 299 298 298 298 299 300 300 301 301 303 303 303 303 302 302 303 303 302 299 298 298 297 296 295 294 293 292 289 287 287 286 286 289 286 283 280 279 275 274 272 271 270 270 271 274 280 286 287 286 283 280 278 273 270 268 264 262 259 256 256 257 257 256 257 257 256 255 256 256 257 257 255 254 256 257 255 256 257 257 254 253
301 300 299 299 298 298 299 300 300 300 301 302 303 304 304 303 302 302 301 300 299 297 296 294 294 294 293 293 292 291 289 287 286 288 287 286 289 289 283 282 280 277 273 271 270 269 271 274 276 283 289 287 283 280 277 276 276 272 270 267 265 259 253 253 253 254 256 256 256 255 254 252 254 256 255 252 252 253 255 260 257 258 260 258 254
299 298 297 296 297 299 301 301 301 301 302 303 303 302 302 301 300 299 298 297 296 294 292 291 291 290 288 286 286 284 285 285 285 285 291 289 280 278 275 275 274 269 270 271 271 272 272 271 273 273 273 274 273 273 275 276 276 271 273 272 264 257 255 254 253 255 257 257 256 256 255 256 256 257 256 255 253 251 249 251 252 250 249 252 255
300 299 300 301 302 303 302 301 301 301 302 302 302 301 301 301 300 300 301 301 300 297 295 291 289 287 286 286 284 282 280 280 278 275 271 272 270 273 281 281 276 279 279 278 278 277 278 277 277 276 272 268 268 267 267 269 269 273 275 270 265 258 256 255 254 253 254 256 257 255 254 255 253 254 256 253 252 252 250 252 251 248 252 251 250
301 301 nan 301 300 300 nan nan nan nan nan nan nan 302 303 303 303 304 305 305 301 299 299 297 295 294 290 287 284 280 277 273 269 266 271 273 278 278 272 274 273 277 nan 280 280 280 279 280 276 265 nan 260 261 264 266 268 271 270 270 269 267 261 258 257 258 259 257 257 256 254 252 252 253 252 253 254 254 255 251 252 250 246 241 244 246
302 nan nan nan nan nan nan nan nan nan nan nan nan nan nan nan 303 304 303 303 304 304 303 300 297 294 291 286 284 281 277 273 273 269 264 263 264 nan nan nan nan nan nan nan nan nan nan nan nan 263 nan nan nan nan nan nan nan nan nan 277 271 263 262 260 259 256 255 255 254 251 249 250 249 247 247 247 249 245 244 245 247 245 243 243 246
nan nan nan nan nan nan nan nan nan nan nan nan nan nan nan 301 302 301 304 305 303 301 299 297 293 290 291 292 288 282 278 275 270 267 266 264 nan nan nan nan nan nan nan nan nan nan nan nan nan nan nan nan nan nan nan nan nan nan 290 281 271 267 nan nan 260 258 256 252 250 246 245 246 243 244 247 250 252 251 250 249 249 245 244 242 243
nan nan nan nan nan nan nan nan nan nan nan nan nan 303 302 303 303 302 300 298 298 300 299 297 295 291 nan nan nan nan nan nan nan nan nan nan nan nan nan nan nan nan nan nan nan nan nan nan nan nan nan nan nan nan 278 275 274 276 275 276 275 272 267 264 261 259 257 254 250 250 249 253 254 253 249 248 249 247 246 250 250 251 250 247 247
nan nan nan nan nan nan nan nan nan nan nan nan nan 299 297 296 296 297 300 299 299 297 nan nan nan nan nan nan nan nan nan nan nan nan nan nan nan nan nan nan nan nan nan nan nan nan nan nan nan nan nan 266 270 269 272 279 282 282 279 275 273 272 272 274 270 265 263 260 253 251 253 257 257 253 251 249 247 246 245 246 248 250 249 248 246
nan nan nan nan nan nan nan nan nan nan nan nan 299 298 298 298 299 299 293 nan nan 293 294 291 290 nan nan nan nan nan nan nan nan nan nan nan nan nan nan nan nan nan nan nan nan nan nan nan nan 277 276 271 263 263 264 nan 277 280 281 276 270 268 269 269 270 266 262 259 257 258 257 254 252 252 253 252 249 248 247 248 246 248 247 246 247
nan nan nan nan nan nan nan nan nan nan nan nan nan nan nan nan 304 299 nan nan nan nan nan nan nan nan nan nan nan nan nan nan nan nan nan nan nan nan nan nan nan nan nan nan nan nan nan nan 281 278 274 271 269 264 nan nan 276 272 267 268 268 265 261 255 254 253 249 247 250 249 247 248 250 251 252 252 249 247 248 249 248 248 248 248 247
nan nan nan nan nan nan nan nan nan nan nan nan nan nan nan nan nan nan nan nan nan nan nan nan nan nan nan nan nan nan nan nan nan nan nan nan nan nan nan nan nan nan nan nan nan nan nan nan nan nan nan 294 297 273 nan 256 263 263 260 255 250 249 253 253 251 249 nan 251 248 246 246 246 247 248 251 251 251 250 249 247 248 248 249 249 249
nan nan nan nan nan nan nan nan nan nan nan nan nan nan 291 293 nan nan nan nan nan nan nan nan nan nan nan nan nan nan nan nan nan nan nan nan nan nan nan nan nan nan nan nan nan nan nan nan nan nan nan 264 nan nan nan 253 253 253 254 254 250 nan nan nan 249 248 248 248 247 246 246 246 246 248 nan 253 252 249 247 246 246 247 nan nan nan
nan nan nan nan nan nan nan nan nan nan nan nan nan nan 291 290 nan nan nan nan nan nan nan nan nan nan nan nan nan nan nan nan nan nan nan nan nan nan nan nan nan nan nan nan nan 261 265 nan nan nan nan nan nan nan nan nan nan 252 nan nan nan nan nan nan 251 250 247 247 248 245 242 nan 239 nan nan nan 249 248 nan nan nan nan nan nan nan
nan nan nan nan nan nan nan nan nan nan nan nan nan nan nan nan nan nan nan nan nan nan nan nan nan nan nan nan nan nan nan nan nan nan nan nan nan nan nan nan nan nan nan nan nan nan nan nan nan nan nan nan nan nan nan nan nan nan nan nan nan nan nan nan nan nan nan nan nan nan nan nan nan nan nan nan nan nan nan nan nan nan nan nan nan
nan nan nan nan nan nan nan nan nan nan nan nan nan nan nan nan nan nan nan nan nan nan nan nan nan nan nan nan nan nan nan nan nan nan nan nan nan nan nan nan nan nan nan nan nan nan nan nan nan nan nan nan nan nan nan nan nan nan nan nan nan 251 nan nan nan nan nan nan 238 nan nan 236 239 nan nan nan nan nan nan nan nan nan nan nan nan
nan nan nan nan nan nan nan nan nan nan nan nan nan nan nan nan nan nan nan nan nan nan nan nan nan nan nan nan nan nan nan nan nan nan nan nan nan nan nan nan nan nan nan nan nan nan nan nan nan nan nan nan nan nan nan nan nan nan nan nan nan nan nan nan nan nan nan nan nan nan nan nan nan nan nan nan nan nan nan nan nan nan nan nan nan
nan nan nan nan nan nan nan nan nan nan nan nan nan nan nan nan nan nan nan nan nan nan nan nan nan nan nan nan nan nan nan nan nan nan nan nan nan nan nan nan nan nan nan nan nan nan nan nan nan nan nan nan nan nan nan nan nan nan nan nan nan nan nan nan nan nan nan nan nan nan nan nan nan nan nan nan nan nan nan nan nan nan nan nan nan
nan nan nan nan nan nan nan nan nan nan nan nan nan nan nan nan nan nan nan nan nan nan nan nan nan nan nan nan nan nan nan nan nan nan nan nan nan nan nan nan nan nan nan nan nan nan nan nan nan nan nan nan nan nan nan nan nan nan nan nan nan nan nan nan nan nan nan nan nan nan nan nan nan nan nan nan nan nan nan nan nan nan nan nan nan
nan nan nan nan nan nan nan nan nan nan nan nan nan nan nan nan nan nan nan nan nan nan nan nan nan nan nan nan nan nan nan nan nan nan nan nan nan nan nan nan nan nan nan nan nan nan nan nan nan nan nan nan nan nan nan nan nan nan nan nan nan nan nan nan nan nan nan nan nan nan nan nan nan nan nan nan nan nan nan nan nan nan nan nan nan
nan nan nan nan nan nan nan nan nan nan nan nan nan nan nan nan nan nan nan nan nan nan nan nan nan nan nan nan nan nan nan nan nan nan nan nan nan nan nan nan nan nan nan nan nan nan nan nan nan nan nan nan nan nan nan nan nan nan nan nan nan nan nan nan nan nan nan nan nan nan nan nan nan nan nan nan nan nan nan nan nan nan nan nan nan
nan nan nan nan nan nan nan nan nan nan nan nan nan nan nan nan nan nan nan nan nan nan nan nan nan nan nan nan nan nan nan nan nan nan nan nan nan nan nan nan nan nan nan nan nan nan nan nan nan nan nan nan nan nan nan nan nan nan nan nan nan nan nan nan nan nan nan nan nan nan nan nan nan nan nan nan nan nan nan nan nan nan nan nan nan
nan nan nan nan nan nan nan nan nan nan nan nan nan nan nan nan nan nan nan nan nan nan nan nan nan nan nan nan nan nan nan nan nan nan nan nan nan nan nan nan nan nan nan nan nan nan nan nan nan nan nan nan nan nan nan nan nan nan nan nan nan nan nan nan nan nan nan nan nan nan nan nan nan nan nan nan nan nan nan nan nan nan nan nan nan
nan nan nan nan nan nan nan nan nan nan nan nan nan nan nan nan nan nan nan nan nan nan nan nan nan nan nan nan nan nan nan nan nan nan nan nan nan nan nan nan nan nan nan nan nan nan nan nan nan nan nan nan nan nan nan nan nan nan nan nan nan nan nan nan nan nan nan nan nan nan nan nan nan nan nan nan nan nan nan nan nan nan nan nan nan
nan nan nan nan nan nan nan nan nan nan nan nan nan nan nan nan nan nan nan nan nan nan nan nan nan nan nan nan nan nan nan nan nan nan nan nan nan nan nan nan nan nan nan nan nan nan nan nan nan nan nan nan nan nan nan nan nan nan nan nan nan nan nan nan nan nan nan nan nan nan nan nan nan nan nan nan nan nan nan nan nan nan nan nan nan
nan nan nan nan nan nan nan nan nan nan nan nan nan nan nan nan nan nan nan nan nan nan nan nan nan nan nan nan nan nan nan nan nan nan nan nan nan nan nan nan nan nan nan nan nan nan nan nan nan nan nan nan nan nan nan nan nan nan nan nan nan nan nan nan nan nan nan nan nan nan nan nan nan nan nan nan nan nan nan nan nan nan nan nan nan
nan nan nan nan nan nan nan nan nan nan nan nan nan nan nan nan nan nan nan nan nan nan nan nan nan nan nan nan nan nan nan nan nan nan nan nan nan nan nan nan nan nan nan nan nan nan nan nan nan nan nan nan nan nan nan nan nan nan nan nan nan nan nan nan nan nan nan nan nan nan nan nan nan nan nan nan nan nan nan nan nan nan nan nan nan
nan nan nan nan nan nan nan nan nan nan nan nan nan nan nan nan nan nan nan nan nan nan nan nan nan nan nan nan nan nan nan nan nan nan nan nan nan nan nan nan nan nan nan nan nan nan nan nan nan nan nan nan nan nan nan nan nan nan nan nan nan nan nan nan nan nan nan nan nan nan nan nan nan nan nan nan nan nan nan nan nan nan nan nan nan
nan nan nan nan nan nan nan nan nan nan nan nan nan nan nan nan nan nan nan nan nan nan nan nan nan nan nan nan nan nan nan nan nan nan nan nan nan nan nan nan nan nan nan nan nan nan nan nan nan nan nan nan nan nan nan nan nan nan nan nan nan nan nan nan nan nan nan nan nan nan nan nan nan nan nan nan nan nan nan nan nan nan nan nan nan
nan nan nan nan nan nan nan nan nan nan nan nan nan nan nan nan nan nan nan nan nan nan nan nan nan nan nan nan nan nan nan nan nan nan nan nan nan nan nan nan nan nan nan nan nan nan nan nan nan nan nan nan nan nan nan nan nan nan nan nan nan nan nan nan nan nan nan nan nan nan nan nan nan nan nan nan nan nan nan nan nan nan nan nan nan
nan nan nan nan nan nan nan nan nan nan nan nan nan nan nan nan nan nan nan nan nan nan nan nan nan nan nan nan nan nan nan nan nan nan nan nan nan nan nan nan nan nan nan nan nan nan nan nan nan nan nan nan nan nan nan nan nan nan nan nan nan nan nan nan nan nan nan nan nan nan nan nan nan nan nan nan nan nan nan nan nan nan nan nan nan
nan nan nan nan nan nan nan nan nan nan nan nan nan nan nan nan nan nan nan nan nan nan nan nan nan nan nan nan nan nan nan nan nan nan nan nan nan nan nan nan nan nan nan nan nan nan nan nan nan nan nan nan nan nan nan nan nan nan nan nan nan nan nan nan nan nan nan nan nan nan nan nan nan nan nan nan nan nan nan nan nan nan nan nan nan